Wind_Speed
23 23 22 22 21 20 20 20 19 19 19 19 19 19 19 19 19 19 19 19 19 19 19 19 19 19 18 18 18 18 17 17 17 17 17 17 17 17 18 18 19 19 20 20 20 20 20 20 20 20 20 19 19 18 18 18 18 18 18 19 19 19 19 19 20 20 20 21 21 21 22 22 22 23 23 23 23 23 24 24 25 25 25 26 26 26
23 22 22 21 21 20 20 19 19 19 19 19 18 19 18 18 19 19 19 19 19 19 19 19 19 19 19 19 19 19 19 18 18 18 17 17 17 18 18 19 19 20 20 21 21 21 21 21 21 21 21 20 20 20 20 20 20 20 21 21 21 21 22 22 22 23 23 23 23 23 24 24 24 24 24 24 24 25 25 26 26 26 27 27 27 27
22 22 21 21 20 20 20 19 19 19 19 19 18 18 18 18 18 18 18 19 19 19 19 19 19 19 20 20 20 20 20 20 20 19 19 19 19 19 19 19 20 20 21 21 22 22 22 22 22 22 21 21 21 21 21 21 22 22 22 23 23 24 24 24 25 25 25 25 26 26 26 26 26 26 26 26 26 26 27 27 28 28 28 29 29 29
21 21 21 20 20 20 20 19 19 19 19 19 18 18 18 18 18 18 18 18 18 19 19 19 19 19 20 20 20 21 21 21 21 21 21 21 21 21 21 21 21 21 22 22 22 23 23 23 23 23 23 23 23 23 23 23 23 23 24 24 24 25 26 26 27 27 27 27 27 27 27 28 28 28 28 28 28 28 28 28 29 29 29 29 30 30
20 20 20 20 19 19 19 19 19 19 18 18 18 18 18 18 18 18 18 18 18 19 19 19 19 20 20 20 21 21 22 22 22 22 23 23 23 23 23 23 23 23 23 23 24 24 24 24 24 24 24 24 25 25 25 25 25 25 25 26 26 27 27 28 28 28 29 29 29 29 29 29 29 29 29 29 29 29 29 29 29 29 30 30 30 30
19 19 19 19 19 19 19 19 19 19 19 19 19 19 19 19 19 19 19 19 19 19 19 20 20 20 21 21 21 22 22 22 23 23 23 23 23 24 24 24 24 24 25 25 25 25 25 25 26 26 26 26 26 27 27 27 27 27 27 28 28 28 28 29 29 29 29 29 30 30 30 30 30 30 30 30 29 29 29 29 29 29 29 29 30 30
19 19 19 19 19 19 19 19 19 19 19 19 19 19 20 20 20 20 20 20 20 20 20 20 21 21 21 21 22 22 22 22 23 23 23 23 24 24 24 24 25 25 25 26 26 26 26 26 27 27 27 28 28 28 29 29 29 29 29 30 30 30 30 30 30 30 30 30 31 31 31 31 31 31 31 30 30 30 30 30 29 29 29 29 29 29
18 18 18 18 18 19 19 19 19 19 19 19 19 20 20 20 20 20 20 21 20 20 20 21 21 21 21 22 22 22 22 22 22 23 23 23 23 23 24 24 25 25 26 26 26 27 27 27 28 28 28 29 29 30 30 30 31 31 31 31 31 31 31 31 31 31 31 31 31 32 32 32 32 32 32 31 31 30 30 29 29 29 28 28 28 28
18 18 18 18 18 18 18 19 19 20 20 20 20 20 20 20 20 21 21 21 21 21 21 21 21 21 21 22 22 22 22 22 22 23 23 23 23 23 24 24 24 25 25 26 26 27 27 27 28 28 29 29 29 30 30 31 31 31 31 32 32 32 31 31 31 31 31 31 31 31 31 31 31 31 31 31 30 30 29 28 28 27 26 26 26 26
17 17 17 17 18 18 18 19 19 20 20 20 20 20 20 20 20 20 21 21 21 21 21 21 21 21 22 22 22 22 22 22 23 23 23 23 23 23 24 24 24 25 25 25 26 26 27 27 28 28 29 29 29 29 30 30 30 30 31 31 31 31 31 31 31 30 30 30 29 29 29 29 29 29 29 28 28 27 26 25 24 24 23 23 22 22
17 17 17 17 18 18 19 19 19 20 20 21 21 21 21 21 21 21 21 21 21 21 21 21 22 22 22 22 22 22 22 23 23 23 24 24 24 24 24 24 24 25 25 25 25 26 26 27 27 28 28 28 28 28 28 29 29 29 29 29 29 29 29 29 28 28 27 27 26 26 26 25 25 24 24 23 23 22 21 21 20 19 19 18 18 18
17 17 17 18 18 18 19 19 20 20 21 21 21 21 21 22 22 21 21 21 21 21 22 22 22 22 23 23 23 23 23 23 23 24 24 25 25 25 25 25 25 25 25 25 25 25 26 26 27 27 27 27 27 27 27 27 26 26 26 26 26 26 26 26 25 24 24 23 22 22 21 20 20 19 19 18 18 17 17 16 16 15 15 15 15 15
18 18 18 18 19 19 19 20 20 21 21 21 21 21 21 22 22 22 22 22 22 22 22 22 23 23 24 24 24 24 24 24 24 25 25 25 26 26 25 25 26 26 26 26 25 25 25 26 26 26 26 26 26 26 25 24 24 23 23 23 23 22 22 22 21 20 20 19 18 17 17 16 15 15 14 14 14 13 13 13 13 13 13 14 14 14
18 18 19 19 19 19 20 20 20 21 21 21 21 21 22 22 22 22 22 22 22 23 23 23 23 24 24 25 25 25 25 25 25 25 26 27 27 27 27 26 26 26 26 26 26 26 26 25 25 25 25 25 24 24 23 22 21 21 20 20 20 19 19 18 17 17 16 15 15 14 14 13 13 13 12 12 12 12 13 13 13 13 14 14 14 14
18 19 19 19 19 20 20 20 21 21 21 21 22 22 22 22 22 22 22 22 23 23 23 24 24 25 25 26 26 26 26 25 26 26 27 28 28 29 28 28 27 27 27 27 26 26 26 25 25 24 24 23 22 21 20 19 19 18 18 17 17 16 16 15 14 14 14 13 13 13 13 13 13 13 13 13 13 13 14 14 14 14 15 15 15 16
19 19 19 19 20 20 21 21 21 21 21 22 22 22 22 22 22 23 23 23 23 23 24 24 24 25 26 27 27 27 27 26 26 26 27 28 29 30 29 28 28 27 27 27 26 26 26 25 24 23 22 21 20 19 18 17 17 16 16 15 15 14 14 14 13 13 13 13 13 13 13 13 14 14 14 14 15 15 15 15 16 16 16 16 17 17
19 20 20 20 20 21 21 21 21 22 22 22 22 22 22 22 23 23 23 23 24 24 24 24 24 25 26 27 27 28 27 27 27 27 27 28 30 30 30 29 28 27 27 27 26 26 25 24 23 22 21 19 18 17 16 16 15 15 14 14 14 14 14 14 14 14 14 14 14 15 15 15 15 15 16 16 16 16 17 17 17 17 17 17 17 17
20 20 20 20 21 21 21 22 22 22 22 22 22 23 23 23 23 23 24 24 24 24 24 24 25 25 25 26 27 28 28 27 27 27 28 29 30 31 30 29 28 28 27 26 26 25 24 23 22 20 19 18 17 16 15 15 15 14 14 14 14 14 14 15 15 15 15 16 16 16 16 17 17 17 17 17 17 17 18 18 18 18 18 18 18 18
20 20 21 21 21 21 22 22 22 22 22 22 23 23 23 23 24 24 24 25 25 25 25 25 25 25 26 26 27 27 28 28 27 27 28 29 30 31 30 30 28 27 27 26 25 24 23 22 20 19 18 17 16 15 15 15 15 15 15 15 15 15 16 16 16 17 17 17 17 17 18 18 18 18 18 18 18 18 18 18 18 18 18 18 18 18
20 21 21 21 21 22 22 22 23 23 23 23 23 23 23 24 24 24 25 25 25 25 26 26 26 26 26 26 27 27 28 28 28 27 28 28 30 30 30 29 28 27 26 25 25 24 22 21 19 18 17 16 16 15 15 15 16 16 16 16 17 17 17 17 17 18 18 18 18 18 18 19 19 19 19 19 19 19 19 19 18 18 18 18 18 18
20 21 21 21 22 22 22 22 23 23 23 23 23 23 23 24 24 25 25 25 26 26 26 26 26 26 27 27 27 27 28 28 27 27 27 28 29 30 30 29 27 26 25 24 24 23 21 20 18 17 17 16 16 16 16 17 17 17 18 18 18 18 18 18 18 19 19 19 19 19 19 19 19 19 19 19 19 19 19 19 18 18 18 18 18 18
20 21 21 22 22 22 22 23 23 23 23 23 23 23 24 24 24 25 25 26 26 26 26 26 26 27 27 27 28 28 28 28 27 27 27 27 28 29 29 28 26 25 24 24 23 22 20 19 18 17 17 17 17 17 18 18 18 19 19 19 19 19 19 19 19 19 19 19 20 20 20 20 20 20 20 19 19 19 19 18 18 18 18 18 18 17
20 21 21 21 22 22 22 23 23 23 23 23 23 23 24 24 24 25 25 26 26 26 26 26 27 27 28 28 28 28 28 28 28 27 27 27 27 28 28 27 26 24 23 23 22 21 20 18 18 17 18 18 18 19 19 19 20 20 20 20 20 20 20 20 20 20 20 20 20 20 20 20 20 20 20 19 19 19 18 18 18 18 18 17 17 17
21 21 21 21 22 22 22 23 23 23 23 23 23 23 24 24 24 25 25 26 26 26 26 26 27 27 28 29 29 29 29 29 28 28 27 26 27 27 27 26 25 23 23 22 22 20 19 18 18 18 18 19 20 20 20 21 21 21 21 21 21 21 21 21 20 20 20 20 20 20 20 20 20 20 19 19 19 19 18 18 18 18 18 18 17 17
21 21 21 21 22 22 22 23 23 23 23 23 23 23 23 24 25 25 26 26 26 26 26 27 27 27 28 29 29 30 30 30 29 28 27 26 26 26 27 26 24 23 22 22 22 20 19 19 19 19 19 20 21 21 21 22 22 22 22 22 22 21 21 21 21 21 20 20 20 20 20 20 19 19 19 19 19 19 18 18 18 18 18 18 18 18
21 21 21 21 22 22 22 23 23 23 23 23 23 23 23 24 24 25 25 26 26 26 27 27 27 28 28 29 29 30 30 30 30 28 27 26 25 25 26 25 24 23 22 22 22 21 20 19 19 19 20 21 22 22 22 22 22 22 22 22 22 22 21 21 21 21 20 20 20 20 19 19 19 19 19 19 19 19 19 19 19 19 18 18 18 18
20 21 21 22 22 22 23 23 23 23 23 23 23 23 23 23 24 24 25 26 26 26 26 27 27 27 28 28 29 30 30 30 30 29 27 26 24 24 24 24 23 22 22 22 22 21 20 20 20 20 21 21 22 22 23 23 23 22 22 22 22 22 22 22 21 21 21 20 20 20 20 20 19 19 19 19 19 19 19 19 19 19 19 19 19 19
20 21 21 22 22 23 23 23 24 24 24 24 24 24 24 24 24 24 24 25 26 26 26 26 27 27 27 28 28 29 30 30 30 29 27 25 24 23 23 23 23 22 22 22 22 22 21 21 21 21 22 22 22 23 23 23 23 23 23 23 23 22 22 22 22 22 21 21 21 20 20 20 20 20 20 20 19 19 20 20 20 20 20 20 20 19
21 21 21 22 22 23 23 23 24 24 24 25 25 24 24 24 24 24 25 25 25 26 26 26 27 27 27 27 28 29 30 30 30 29 27 25 24 23 23 23 22 22 22 22 23 23 22 22 22 22 22 23 23 23 23 23 23 23 23 23 23 23 23 23 23 22 22 22 21 21 21 21 20 20 20 20 20 20 20 20 20 21 21 20 20 20
21 22 22 22 22 23 23 23 24 24 25 25 25 25 25 25 25 25 25 25 25 25 26 26 27 27 27 27 28 28 29 30 30 29 28 25 24 23 23 22 22 22 22 22 23 23 23 23 23 23 23 24 24 24 24 24 24 24 24 24 24 24 24 24 23 23 23 23 22 22 22 22 22 21 21 21 21 21 21 21 21 21 21 21 21 21
22 22 22 22 23 23 23 23 24 24 24 25 25 25 25 25 25 25 25 25 25 26 26 26 27 27 27 27 27 27 28 29 30 29 28 25 24 23 23 22 22 23 23 23 22 23 23 23 24 24 24 24 24 24 24 24 24 24 24 24 24 24 24 24 24 24 24 24 23 23 23 23 23 23 22 22 22 22 22 22 22 22 22 22 21 21
22 22 22 23 23 23 23 23 24 24 24 24 25 25 25 25 25 25 25 25 26 26 26 26 27 27 27 27 27 27 27 28 29 28 27 25 24 24 23 22 22 23 23 23 23 23 23 23 24 24 25 25 25 25 25 25 25 24 24 25 25 25 25 25 25 24 24 24 24 24 24 24 24 24 24 24 24 23 23 24 24 24 23 23 23 22
22 23 23 23 23 23 23 24 24 24 24 24 25 25 25 25 25 25 25 26 26 26 26 26 27 27 27 27 27 28 28 28 28 28 27 25 24 24 23 23 23 23 24 24 23 23 23 23 23 24 24 25 25 26 26 26 25 25 25 25 25 25 25 25 25 25 25 25 25 25 25 25 25 25 25 25 25 25 25 25 25 25 25 25 25 24
23 23 23 23 24 24 24 24 24 24 24 24 25 25 25 25 25 25 26 26 26 26 26 26 27 27 27 27 27 28 28 29 29 28 27 26 25 24 23 23 23 23 24 24 24 24 23 23 23 23 24 24 25 26 26 26 26 26 25 25 25 25 26 26 26 26 26 26 26 26 27 27 27 27 27 27 27 27 27 27 28 28 27 27 27 27
23 23 24 24 24 24 24 24 24 24 24 25 25 25 25 25 25 26 26 26 26 26 27 27 27 27 27 27 27 27 28 28 29 29 28 27 25 25 24 23 24 24 24 24 25 24 24 24 23 23 23 23 24 25 26 27 27 27 26 26 26 26 26 26 26 26 26 27 27 27 28 28 28 28 29 29 29 29 29 29 29 29 29 29 29 29
23 24 24 24 24 24 24 24 25 25 25 25 25 25 25 25 26 26 26 26 26 27 27 27 27 27 27 27 27 27 27 28 28 28 28 27 26 26 25 24 24 25 25 25 25 25 25 24 24 24 23 23 23 24 26 27 27 27 27 27 27 27 27 27 27 27 27 27 28 28 29 29 29 30 30 30 30 31 31 31 31 31 31 31 31 30
24 24 24 24 24 25 25 25 25 25 25 25 25 25 25 25 26 26 26 26 27 27 27 27 27 28 28 28 28 27 28 28 28 28 28 28 27 27 26 25 25 25 25 25 25 25 25 25 25 24 24 24 23 24 25 26 27 27 28 28 28 28 28 28 28 28 28 28 29 29 30 30 30 31 31 31 31 32 32 32 32 32 32 32 32 32
24 24 24 25 25 25 25 25 25 25 25 25 25 25 25 26 26 26 26 26 27 27 27 27 27 28 28 28 28 28 28 28 28 28 28 28 28 27 27 26 26 26 26 26 26 26 25 25 25 25 25 24 24 24 25 25 26 27 28 28 28 29 29 29 29 29 29 29 30 30 30 31 31 31 31 32 32 32 32 33 33 33 33 33 33 33
24 24 24 25 25 25 25 25 25 25 25 25 25 26 26 26 26 26 27 27 27 27 27 27 27 28 28 28 28 28 29 28 28 28 28 28 28 28 27 27 27 27 27 27 26 26 26 26 25 25 25 25 25 25 25 25 26 27 28 28 29 29 30 30 30 30 30 30 31 31 31 31 32 32 32 32 32 32 32 33 33 34 34 34 34 34
24 24 24 25 25 25 25 25 25 25 25 26 26 26 26 26 27 27 27 27 27 27 27 28 28 28 28 28 29 29 29 29 29 29 29 29 28 28 28 28 27 27 27 27 27 27 26 26 26 26 25 25 25 25 25 25 26 27 28 28 29 29 30 30 31 31 31 31 31 32 32 32 32 32 32 32 32 32 32 33 33 33 34 34 34 34
24 24 25 25 25 25 25 25 25 26 26 26 26 26 26 26 27 27 27 28 28 28 28 28 28 28 29 29 29 29 29 29 29 29 29 29 29 29 28 28 28 28 27 27 27 27 27 27 27 26 26 26 26 25 25 26 26 27 28 28 29 29 30 30 31 31 32 32 32 32 32 33 32 32 32 32 32 32 32 33 33 33 34 34 34 34
24 24 25 25 25 25 25 25 26 26 26 26 26 26 27 27 27 27 27 28 28 28 29 28 28 29 29 30 30 30 30 30 29 29 29 29 29 29 28 28 28 28 28 27 27 27 27 27 27 27 27 27 26 26 26 26 27 28 29 29 30 30 30 30 31 32 32 32 33 33 33 33 33 32 32 32 32 32 32 33 33 33 33 33 34 34
24 25 25 25 25 25 25 25 26 26 26 26 26 27 27 27 27 27 28 28 29 29 29 29 29 29 29 30 31 31 31 31 30 30 30 30 29 29 29 28 28 28 28 27 27 27 27 27 27 27 28 27 27 27 26 26 27 28 29 30 30 30 30 30 31 32 32 33 33 33 33 33 33 32 32 32 32 32 32 32 33 33 33 33 33 33
25 25 25 25 25 25 25 25 26 26 26 26 27 27 27 28 28 28 28 29 29 29 30 30 30 30 30 30 30 31 31 31 31 31 31 31 30 30 29 29 28 28 28 27 27 27 27 27 27 27 27 27 27 27 27 27 28 29 30 30 31 30 30 30 31 32 32 33 33 33 34 34 33 33 32 32 32 32 32 32 32 32 32 33 32 32
25 25 25 25 25 25 25 26 26 26 26 27 27 27 28 28 28 28 29 29 30 30 30 30 30 30 30 30 30 30 31 31 32 32 32 31 31 31 30 29 29 28 28 27 27 26 26 26 26 27 27 27 27 27 27 27 28 28 29 30 30 31 31 31 31 32 32 33 33 33 34 34 33 33 32 32 32 31 31 31 31 31 31 32 32 32
25 25 25 25 25 26 26 26 26 27 27 27 28 28 28 28 29 29 29 30 30 30 30 30 30 30 30 30 30 30 30 30 31 31 32 32 32 31 31 30 29 29 28 27 27 26 26 25 25 25 26 26 26 26 26 26 27 28 28 29 29 30 30 30 31 32 32 32 33 33 34 34 34 33 32 32 32 31 31 31 31 31 31 31 31 31
25 25 25 26 26 26 26 26 26 27 27 28 28 28 29 29 29 30 30 30 31 31 31 31 31 30 30 30 29 29 29 29 30 30 31 31 31 31 31 31 30 29 28 27 27 26 25 25 24 24 24 24 24 24 25 25 26 26 27 27 28 28 29 29 30 31 31 32 32 33 33 33 33 33 33 32 32 31 31 31 31 30 30 30 30 30
26 26 26 26 26 26 26 26 27 27 27 28 28 29 29 30 30 30 31 31 31 31 31 31 31 30 30 30 29 29 28 28 28 29 30 30 30 31 31 31 31 30 29 28 27 26 25 24 24 24 24 24 24 23 24 24 25 25 26 26 26 27 27 28 29 30 30 31 31 32 32 33 33 33 33 32 32 31 31 30 30 30 29 29 29 28
26 26 26 26 26 26 26 27 27 27 28 28 29 29 30 30 30 31 31 31 31 31 31 31 31 30 30 29 29 29 28 28 28 28 29 29 29 30 30 30 30 30 29 29 28 27 26 25 24 24 24 24 24 23 23 24 24 24 25 25 26 26 27 27 28 29 30 30 31 31 32 32 32 32 32 32 31 30 30 29 28 28 27 27 27 27
26 26 26 26 26 26 27 27 27 27 28 28 29 29 30 31 31 31 31 32 32 31 31 31 30 30 29 29 29 28 28 28 28 28 28 29 29 29 29 29 29 29 29 29 28 27 26 25 24 24 24 24 24 24 23 23 24 24 24 25 25 26 26 27 27 28 29 29 29 30 30 30 31 31 31 30 30 29 28 27 26 25 25 25 25 26
26 27 27 27 27 27 27 27 27 28 28 29 29 30 30 31 31 32 32 32 32 31 31 31 30 29 29 28 28 28 27 27 27 28 28 28 28 28 29 29 29 29 28 28 28 27 26 25 24 23 24 25 25 25 24 24 24 24 24 24 25 25 25 26 26 26 27 27 27 28 28 28 28 28 28 28 27 27 26 25 24 23 23 23 24 24
Wind_Direction
310 311 312 313 314 315 316 317 317 318 318 319 319 318 318 317 317 316 316 315 315 314 314 314 314 314 314 315 314 314 314 313 312 311 310 308 306 304 302 300 299 298 297 296 296 295 295 294 293 293 292 291 290 289 288 287 286 285 285 284 284 283 283 283 282 281 280 279 278 277 276 275 274 273 272 271 271 269 268 267 267 266 265 265 264 264
309 311 312 313 315 316 317 318 319 319 319 320 320 319 318 317 316 316 315 315 314 313 313 313 313 313 314 314 314 314 314 313 312 311 309 307 305 303 302 300 299 298 297 296 295 294 293 293 292 291 290 290 289 288 286 285 283 282 281 281 281 281 281 281 281 280 280 279 279 279 278 277 277 276 275 274 273 272 271 270 269 268 267 267 266 265
309 310 312 314 315 317 318 319 320 320 321 320 320 320 320 319 317 316 315 314 314 314 313 313 313 313 313 313 314 314 313 313 312 311 309 308 306 304 302 301 300 299 298 297 295 294 293 293 292 291 290 289 288 287 285 284 283 282 282 281 281 281 280 280 280 279 279 279 279 279 279 278 278 277 276 275 274 273 272 271 270 269 268 267 267 266
309 311 312 314 316 317 318 319 320 321 321 321 321 321 321 320 319 318 317 316 315 315 314 314 314 314 313 314 314 313 313 312 311 310 309 308 306 305 303 302 300 299 298 297 295 295 294 293 292 291 290 289 287 286 285 284 283 283 282 281 281 280 280 279 279 279 279 279 279 279 279 278 278 277 276 275 274 273 272 271 270 269 269 268 268 267
310 311 313 315 316 317 318 319 320 321 322 322 322 322 321 321 320 320 319 318 317 317 316 316 315 315 314 314 313 313 312 311 310 309 308 307 306 305 303 302 300 299 297 296 295 294 293 292 291 290 288 287 286 285 285 284 283 282 281 280 279 279 278 278 279 279 279 279 279 279 279 278 278 277 276 275 274 273 273 272 271 270 269 269 268 268
311 312 313 315 316 318 318 319 320 321 321 322 322 322 321 321 321 321 320 320 319 318 318 318 317 316 315 315 314 313 312 310 309 308 307 306 305 304 303 302 300 298 297 295 294 293 291 290 289 288 287 286 285 284 283 283 282 281 280 279 278 278 278 278 278 278 279 279 279 279 278 278 277 277 276 276 275 274 273 272 271 271 270 269 269 268
311 313 314 315 317 318 318 319 320 320 321 321 322 322 322 322 322 321 320 320 320 320 319 319 318 317 316 315 314 313 312 310 309 308 307 306 304 304 303 301 300 298 297 295 294 292 291 290 288 287 286 285 284 284 283 282 282 281 280 279 279 278 278 278 278 278 278 278 278 278 278 278 277 277 276 276 275 275 274 273 272 271 271 270 268 268
312 313 315 316 317 318 318 319 319 320 320 321 322 322 322 321 321 321 321 320 320 320 319 319 319 318 316 315 314 313 312 311 310 309 308 307 306 305 304 302 301 299 297 296 294 293 292 291 289 288 287 286 285 284 283 283 282 282 281 281 280 280 279 279 278 277 277 276 276 276 276 276 276 276 276 276 275 275 274 273 272 271 270 269 268 267
312 314 315 316 317 318 319 319 319 319 320 320 321 321 321 321 320 320 320 320 319 319 319 318 318 318 317 316 315 315 314 313 312 311 310 309 308 307 305 304 302 300 298 297 295 294 293 291 290 289 287 286 285 284 283 283 282 282 282 281 281 281 280 279 278 277 276 275 274 274 273 273 273 273 274 274 274 273 273 272 271 270 269 268 267 265
313 314 316 316 317 317 318 319 319 318 319 320 320 320 320 320 320 320 320 319 319 319 318 318 318 318 318 317 317 316 316 315 314 313 312 311 310 309 308 306 305 303 301 299 297 296 294 292 291 289 288 287 286 285 284 283 283 282 282 282 281 281 280 279 279 277 276 275 274 273 272 272 271 271 271 271 271 270 270 269 268 267 266 265 264 263
313 314 316 316 316 317 317 318 318 318 318 319 319 319 319 319 319 319 319 319 319 319 318 318 318 318 318 317 318 318 317 317 317 315 314 312 311 310 309 308 307 305 303 301 299 297 295 293 292 291 289 288 288 287 286 285 284 283 283 282 281 280 279 279 278 277 276 275 274 273 272 271 270 269 268 267 267 266 265 264 264 263 262 261 260 259
313 314 315 316 316 317 317 317 317 317 317 318 318 318 318 317 317 317 318 318 319 319 319 319 319 318 318 317 318 318 318 318 318 317 315 314 312 312 311 310 309 307 305 303 301 299 297 294 293 292 291 290 289 289 288 287 286 285 283 282 280 279 278 277 277 276 276 275 273 272 271 269 268 266 265 263 262 261 260 259 258 257 256 255 255 255
313 314 315 315 316 316 316 316 316 316 316 316 316 316 316 315 316 316 317 318 318 318 318 319 319 318 318 317 318 318 318 318 318 317 316 314 313 312 312 311 310 308 307 305 303 300 298 295 294 293 292 291 290 290 289 288 286 284 282 280 279 277 276 276 275 274 273 272 270 269 267 265 264 262 260 258 257 256 254 253 253 252 252 252 252 253
313 314 314 315 315 315 314 314 314 314 314 314 314 314 314 314 315 315 316 317 317 317 318 318 318 317 317 317 318 318 318 318 318 317 316 314 313 312 312 312 311 309 308 306 304 301 299 296 295 293 293 292 291 290 289 287 284 282 280 278 276 275 274 273 272 270 268 267 265 263 261 260 258 257 256 255 254 253 253 252 252 252 253 253 254 254
312 313 313 313 313 313 313 312 312 312 312 312 312 313 314 314 314 315 315 316 316 316 316 317 317 317 316 316 317 317 318 318 318 317 316 314 313 312 312 312 311 310 308 306 304 302 299 297 295 294 293 291 290 289 287 284 281 278 276 274 272 271 270 268 266 264 262 261 259 258 257 256 255 255 255 255 254 255 255 255 255 255 256 256 257 257
312 312 312 312 312 311 311 311 311 311 311 311 311 312 313 313 313 314 314 314 315 315 316 316 316 317 316 316 316 317 317 317 317 316 315 313 312 312 312 312 311 310 308 306 304 302 299 297 295 293 292 290 288 286 283 280 277 274 272 270 268 266 265 263 261 260 259 258 257 257 257 257 256 256 257 257 258 258 258 258 258 259 259 259 259 260
311 311 311 311 310 310 310 310 310 310 310 310 311 311 312 312 313 313 313 313 314 314 314 315 315 316 316 315 316 316 316 317 316 316 315 313 311 311 312 312 311 309 308 306 303 301 299 296 294 292 290 288 285 282 279 276 273 270 268 266 265 263 262 261 260 259 259 259 259 260 260 260 261 261 261 261 262 262 262 262 262 262 262 262 262 262
310 310 310 310 310 309 309 309 309 309 310 310 311 311 312 312 312 312 313 312 313 313 313 314 314 315 315 315 314 314 315 315 315 315 314 312 311 311 311 311 310 309 307 305 303 300 298 295 293 290 288 285 281 278 275 272 269 267 266 265 264 263 262 262 262 262 262 263 263 264 264 265 265 265 266 266 266 266 266 266 266 265 265 265 265 265
310 310 310 309 309 309 309 309 309 309 310 311 311 312 312 312 312 312 312 312 312 313 313 314 314 314 314 314 313 313 314 314 314 314 313 311 310 310 310 310 309 308 306 304 301 298 296 293 291 288 284 281 277 274 271 269 268 267 266 265 265 265 265 265 265 265 266 266 266 267 267 267 268 268 268 268 268 268 268 268 268 267 267 267 267 267
310 310 310 309 309 309 309 309 309 310 310 311 311 311 312 312 311 311 311 312 312 313 313 314 314 314 313 313 313 313 313 313 313 313 312 310 309 309 308 308 308 306 304 302 299 296 294 291 288 285 281 277 274 271 269 268 267 267 267 267 267 267 267 267 267 267 267 268 268 268 268 268 268 268 268 268 268 268 268 268 268 267 267 267 267 267
311 310 310 310 310 310 310 310 310 310 311 311 312 312 312 312 311 311 311 311 312 312 313 313 313 313 313 313 312 313 313 313 312 312 311 310 309 308 307 307 306 305 302 299 296 294 291 288 285 281 278 274 272 270 269 268 268 268 268 268 268 268 268 268 268 268 268 268 268 268 268 268 268 268 268 268 268 267 267 267 267 267 267 266 266 266
311 311 310 310 310 310 310 310 310 311 311 312 312 312 312 311 311 311 311 311 311 312 313 313 313 312 312 312 312 312 312 312 312 311 311 309 308 307 306 306 305 303 300 297 294 291 288 285 282 279 275 273 271 270 269 269 269 269 269 269 268 268 268 268 268 268 268 268 267 267 267 267 267 268 268 268 268 267 267 267 266 266 266 266 265 265
311 311 310 310 310 310 310 311 311 311 312 312 312 312 312 311 311 311 311 311 311 311 312 312 312 312 312 312 312 312 312 312 312 311 310 309 307 306 305 305 303 301 297 294 291 288 286 282 279 277 275 273 272 271 271 270 270 270 269 269 269 268 268 268 268 267 267 267 267 267 267 267 267 267 267 268 267 267 267 266 266 265 265 265 265 265
311 311 311 311 311 311 311 311 311 311 312 312 312 312 311 311 311 310 310 311 311 311 312 312 312 312 312 312 312 312 312 312 312 311 311 309 308 306 305 303 301 298 295 292 289 286 283 280 278 276 275 274 273 272 272 272 271 271 270 269 269 269 268 268 268 267 267 267 266 266 266 266 266 266 266 266 266 266 265 265 265 265 264 264 264 264
311 311 311 311 311 311 311 311 311 311 311 311 312 311 311 311 311 311 311 311 311 311 312 312 313 313 312 313 313 313 312 312 312 311 311 310 308 306 304 302 299 296 292 290 288 285 282 279 277 276 275 274 274 274 274 273 272 272 271 270 270 269 268 268 267 267 266 266 265 265 265 264 264 264 264 264 264 264 264 264 264 264 264 264 264 265
311 312 312 312 311 311 311 310 310 310 310 311 311 311 310 310 310 311 311 311 311 311 312 313 313 313 312 313 313 312 312 312 312 311 310 309 308 305 303 301 298 294 291 288 286 284 281 279 277 276 275 275 275 275 275 274 274 273 272 271 270 269 268 268 267 266 265 264 264 263 262 262 262 262 262 262 262 262 263 263 263 264 264 265 265 266
311 312 312 312 312 311 311 311 311 310 310 310 310 310 310 310 310 311 310 310 310 311 312 312 313 313 313 313 313 312 312 312 311 310 310 309 307 304 301 298 296 293 289 287 285 283 281 280 278 277 276 276 276 276 275 275 274 273 272 271 270 269 268 267 266 265 264 263 262 261 260 260 260 260 260 260 261 261 263 263 264 265 266 266 267 267
312 312 312 312 312 312 311 311 311 311 311 311 311 311 311 311 311 311 310 310 310 311 312 312 313 313 313 313 312 312 312 311 311 310 309 308 307 303 299 296 293 290 287 285 284 283 282 281 280 279 277 277 276 276 276 275 274 273 272 271 270 269 268 267 266 265 264 262 261 260 259 259 258 258 259 260 260 261 262 264 265 266 266 267 268 268
312 312 312 312 312 312 312 312 312 312 312 312 312 312 312 311 312 311 311 311 311 312 313 313 313 314 314 314 313 313 312 311 310 310 309 308 306 302 298 295 291 288 286 283 283 283 282 282 281 280 279 278 277 277 276 275 274 273 272 271 270 269 268 267 265 264 263 262 261 260 259 259 259 259 259 260 260 262 263 264 265 266 267 268 268 269
313 313 313 312 312 312 312 312 312 312 312 312 312 312 312 312 312 312 312 312 313 313 314 314 314 315 315 314 314 313 312 311 310 309 309 308 305 302 298 294 290 287 285 283 282 282 282 282 282 281 280 280 279 278 277 276 275 274 272 271 270 269 268 267 266 265 264 263 262 261 261 260 260 260 261 261 262 263 264 265 266 267 267 268 269 269
313 313 313 312 312 312 312 312 312 312 312 312 312 312 312 312 313 313 313 313 314 314 315 315 315 315 315 315 314 313 311 310 309 309 308 307 304 300 297 293 289 286 284 282 281 282 282 283 283 282 282 281 281 280 279 277 276 275 273 272 271 270 269 268 267 266 266 265 265 265 264 264 264 265 265 266 266 267 268 268 269 270 270 270 271 271
313 313 313 312 312 312 312 312 312 311 311 311 311 312 312 313 313 313 314 314 315 315 316 316 316 316 316 315 315 313 311 309 308 308 308 306 304 300 297 293 289 286 284 282 281 281 281 282 283 283 282 282 282 281 280 279 277 276 275 274 273 272 272 271 270 270 269 269 269 269 270 270 270 271 271 272 272 273 273 274 274 274 274 274 274 274
313 313 313 313 312 312 312 312 311 311 311 311 311 312 312 313 313 314 314 315 316 316 317 317 317 317 316 316 315 313 312 310 309 308 307 305 303 300 297 293 290 287 285 283 282 281 281 281 282 282 283 283 282 282 281 280 278 277 276 275 275 274 274 274 274 274 274 274 274 274 275 275 276 276 277 277 278 278 278 279 279 279 278 278 278 278
313 313 313 313 312 312 312 312 312 311 311 311 311 312 312 313 313 314 315 315 316 317 317 317 317 317 316 316 315 313 312 310 309 308 307 305 303 300 297 293 290 287 285 284 283 283 282 281 281 281 281 281 282 282 281 280 279 278 277 276 276 276 276 276 276 276 276 277 277 278 278 278 279 279 280 280 281 281 282 282 282 282 282 282 282 281
313 313 313 312 312 312 312 312 312 312 311 312 312 312 312 313 313 314 315 316 316 317 317 317 317 316 316 315 314 313 311 310 309 308 306 304 302 300 296 293 290 287 285 284 283 283 282 281 280 279 278 278 279 279 280 280 279 279 278 277 277 276 276 277 277 277 278 278 279 279 280 280 281 281 281 282 282 283 283 283 283 283 283 283 283 283
313 313 312 312 312 312 312 312 312 311 311 312 312 312 313 313 314 314 315 316 316 317 317 317 316 316 315 314 313 312 310 309 308 307 305 304 302 300 297 293 291 288 286 284 283 282 281 281 280 279 277 275 274 274 276 277 278 279 279 278 277 277 277 277 277 277 278 278 279 280 280 281 281 281 282 282 282 283 283 283 284 284 284 284 284 284
312 312 312 312 312 312 311 311 311 311 312 312 312 312 313 313 314 314 315 315 316 316 317 316 316 315 315 314 313 312 310 309 308 306 305 303 302 300 297 294 292 289 287 285 283 282 281 280 279 278 276 275 272 271 271 273 275 276 277 277 277 277 277 277 277 277 277 277 278 278 279 279 280 280 280 281 281 282 282 283 283 283 284 284 284 285
312 312 311 311 311 311 311 311 311 311 311 311 312 312 312 313 313 314 315 315 316 316 316 316 315 315 314 313 312 311 310 309 307 306 305 303 302 300 298 295 293 290 288 285 284 282 281 279 278 277 276 275 273 271 270 270 271 272 273 275 276 276 276 276 276 276 276 276 276 276 276 277 277 278 278 279 280 280 281 281 282 282 283 283 284 285
311 311 311 311 311 311 310 310 310 311 311 311 312 312 312 313 313 314 315 315 316 316 316 315 315 314 313 313 312 310 309 308 307 305 304 303 301 299 298 295 293 291 289 286 285 283 281 280 278 277 275 274 273 272 271 270 270 270 270 271 272 273 274 274 275 275 275 275 275 275 275 275 275 276 276 277 277 278 279 279 280 281 281 282 283 284
310 310 310 310 310 310 310 310 310 310 311 311 311 312 312 313 314 314 315 315 316 316 316 315 315 314 313 312 311 310 309 308 306 305 304 303 301 299 298 295 293 291 289 287 286 284 282 280 279 277 275 274 273 272 271 271 270 269 268 268 268 269 271 272 273 273 274 274 274 274 274 275 275 275 275 276 276 276 277 277 278 279 280 280 281 282
310 310 310 310 310 310 310 310 310 310 310 311 311 312 312 313 313 314 315 315 315 315 315 315 314 313 313 311 310 309 308 307 306 305 303 302 301 299 298 296 294 292 290 288 286 285 283 281 279 278 276 275 273 272 272 271 270 269 268 267 266 267 268 269 270 271 272 273 273 273 274 274 274 275 275 276 276 276 276 276 277 277 278 279 279 280
309 309 309 309 309 309 310 310 310 310 310 310 311 311 312 312 313 314 314 315 315 315 315 314 314 313 312 311 310 309 308 307 306 304 303 301 300 299 298 297 295 293 292 290 288 286 285 283 281 280 278 276 275 274 272 271 270 270 269 268 268 267 268 268 269 270 271 272 272 273 273 274 274 275 275 276 276 276 276 276 277 277 277 277 278 278
309 309 309 309 309 309 309 309 309 309 310 310 310 311 311 312 313 313 314 314 314 315 315 314 314 313 312 311 310 310 309 308 306 305 303 302 300 299 298 297 296 295 293 291 290 288 287 285 284 282 280 279 277 276 274 272 271 271 270 270 269 269 269 269 269 270 271 272 272 273 274 274 275 275 276 276 276 276 277 277 277 277 277 277 277 277
308 308 309 309 309 309 309 309 309 309 309 309 310 310 311 312 313 314 314 314 315 315 315 315 314 314 312 311 310 310 309 308 307 306 304 303 302 300 299 298 297 296 295 293 292 290 289 287 285 284 282 281 280 278 276 274 272 271 271 271 271 271 270 270 270 270 271 272 273 274 275 275 276 276 276 277 277 277 277 277 277 277 277 277 277 277
308 308 308 308 309 309 308 308 308 309 309 309 309 310 311 312 313 314 314 315 315 315 315 315 314 314 313 312 310 310 309 309 307 306 305 304 303 302 301 299 299 298 297 295 294 292 291 289 287 286 284 283 281 280 277 275 273 272 271 271 272 272 272 271 271 272 272 273 274 275 276 276 277 277 278 278 278 278 278 278 278 278 278 277 277 277
308 308 308 308 308 308 308 308 308 308 309 309 310 310 311 312 313 314 315 315 315 315 315 315 314 314 313 312 311 310 309 308 307 306 305 304 303 302 301 300 299 299 298 297 296 295 293 291 290 288 287 285 283 282 280 277 275 274 273 273 273 273 273 273 273 274 274 274 275 276 277 277 278 279 279 279 279 279 278 278 278 278 278 278 277 277
307 307 308 307 308 308 308 308 308 308 308 309 310 310 311 313 314 314 315 315 315 315 315 315 315 314 313 312 311 310 308 307 306 305 305 304 303 302 301 300 300 299 299 298 298 297 296 294 292 291 289 288 286 284 282 280 279 278 276 276 275 275 275 275 276 276 276 277 277 278 279 280 281 281 281 281 280 280 280 279 279 279 278 278 277 276
307 307 307 307 307 307 308 307 308 308 308 309 310 311 312 313 314 315 315 315 315 315 315 315 315 314 313 312 311 310 309 307 305 304 304 303 302 302 301 301 301 301 300 300 299 298 297 296 295 294 292 291 289 287 285 283 283 282 281 280 280 279 279 279 279 279 280 280 281 281 282 283 283 283 283 282 282 281 281 280 279 279 278 277 276 276
307 307 307 307 307 307 307 308 308 308 309 309 310 311 312 313 314 314 315 315 315 315 315 315 315 314 314 313 312 311 309 308 306 305 304 303 302 302 302 301 301 301 301 301 300 300 299 298 298 297 295 293 292 290 288 287 287 286 286 285 285 284 283 283 283 283 284 284 285 285 286 286 286 285 285 284 283 282 281 280 279 278 277 276 276 275
307 307 307 307 307 307 307 307 308 308 309 309 310 311 312 313 314 314 315 315 315 316 316 315 315 315 314 313 312 311 310 309 307 306 305 304 304 303 302 302 302 301 301 301 301 300 300 300 300 299 297 296 294 293 291 290 289 289 288 288 288 287 286 286 286 286 287 287 288 288 288 288 288 287 287 286 285 283 282 280 278 277 276 276 275 275
306 307 307 307 307 307 307 307 308 308 309 310 310 311 312 313 314 314 315 315 315 316 316 316 315 315 314 313 312 311 310 309 308 307 306 306 305 305 304 303 302 302 301 301 300 300 300 300 300 299 298 296 295 294 293 292 291 290 289 288 288 287 287 287 287 288 288 289 289 290 289 289 289 288 288 287 286 285 283 281 278 277 276 275 274 274
Height
3089 3088 3087 3087 3086 3085 3085 3084 3083 3082 3082 3081 3080 3080 3079 3078 3077 3077 3076 3075 3075 3074 3073 3072 3072 3071 3070 3070 3069 3068 3067 3067 3066 3065 3065 3064 3063 3063 3062 3061 3061 3060 3060 3059 3059 3058 3057 3057 3056 3056 3055 3055 3055 3054 3054 3053 3053 3053 3053 3052 3052 3052 3052 3052 3052 3051 3051 3051 3051 3051 3051 3052 3052 3052 3052 3052 3052 3053 3053 3053 3053 3054 3054 3054 3054 3055
3087 3087 3086 3085 3084 3084 3083 3082 3081 3081 3080 3080 3079 3078 3077 3077 3076 3075 3075 3074 3073 3072 3072 3071 3070 3069 3069 3068 3067 3066 3065 3065 3064 3064 3063 3062 3062 3061 3060 3060 3059 3059 3058 3057 3057 3056 3056 3055 3055 3055 3054 3054 3053 3053 3052 3052 3051 3051 3051 3051 3050 3050 3050 3050 3050 3050 3049 3049 3050 3050 3050 3050 3050 3050 3050 3050 3050 3051 3051 3051 3051 3052 3052 3052 3052 3053
3086 3085 3084 3083 3083 3082 3081 3081 3080 3079 3079 3078 3077 3077 3076 3075 3075 3074 3073 3072 3072 3071 3070 3069 3069 3068 3067 3066 3065 3065 3064 3063 3062 3062 3061 3060 3060 3059 3059 3058 3057 3057 3056 3055 3055 3055 3054 3054 3053 3053 3052 3052 3051 3051 3050 3050 3050 3050 3049 3049 3049 3048 3048 3048 3048 3047 3047 3047 3047 3048 3048 3048 3048 3048 3048 3049 3049 3049 3049 3049 3049 3050 3050 3050 3050 3050
3084 3083 3083 3082 3081 3080 3080 3079 3078 3078 3077 3076 3076 3075 3075 3074 3073 3072 3072 3071 3070 3070 3069 3068 3067 3066 3065 3065 3064 3063 3062 3061 3060 3060 3059 3058 3058 3057 3057 3056 3055 3055 3055 3054 3053 3053 3052 3052 3051 3051 3050 3050 3050 3049 3049 3048 3048 3048 3047 3047 3047 3046 3046 3046 3045 3045 3045 3045 3045 3045 3046 3046 3046 3046 3046 3046 3046 3046 3047 3047 3047 3047 3047 3047 3048 3048
3083 3082 3081 3080 3080 3079 3078 3077 3077 3076 3076 3075 3074 3074 3073 3072 3072 3071 3070 3070 3069 3068 3067 3066 3065 3065 3064 3063 3062 3061 3060 3060 3059 3058 3057 3056 3056 3055 3055 3054 3054 3053 3053 3052 3051 3051 3050 3050 3049 3049 3048 3048 3047 3047 3047 3046 3046 3046 3045 3045 3045 3045 3044 3044 3044 3044 3043 3043 3043 3043 3043 3044 3044 3044 3044 3044 3044 3044 3044 3044 3044 3045 3045 3045 3045 3045
3081 3080 3080 3079 3078 3077 3077 3076 3075 3075 3074 3074 3073 3072 3071 3071 3070 3069 3069 3068 3067 3066 3065 3065 3064 3063 3062 3061 3060 3060 3059 3058 3057 3056 3055 3055 3054 3053 3053 3052 3052 3051 3050 3050 3050 3049 3048 3048 3047 3047 3046 3046 3045 3045 3044 3044 3044 3043 3043 3043 3042 3042 3042 3042 3042 3041 3041 3041 3041 3041 3041 3041 3041 3041 3041 3041 3041 3041 3041 3041 3042 3042 3042 3042 3042 3043
3080 3079 3078 3077 3076 3076 3075 3075 3074 3073 3073 3072 3071 3071 3070 3069 3068 3068 3067 3066 3065 3065 3064 3063 3062 3061 3060 3060 3059 3058 3057 3056 3055 3054 3054 3053 3052 3051 3051 3050 3050 3049 3049 3048 3047 3047 3046 3046 3045 3045 3044 3043 3043 3042 3042 3041 3041 3040 3040 3040 3040 3040 3040 3040 3040 3039 3039 3039 3039 3039 3039 3038 3038 3038 3038 3038 3038 3038 3038 3039 3039 3039 3039 3039 3040 3040
3078 3077 3077 3076 3075 3074 3074 3073 3072 3072 3071 3070 3070 3069 3068 3068 3067 3066 3065 3064 3064 3063 3062 3061 3060 3060 3059 3058 3057 3056 3055 3055 3054 3053 3052 3051 3050 3050 3049 3048 3048 3047 3046 3046 3045 3045 3044 3043 3043 3042 3041 3041 3040 3040 3039 3039 3038 3038 3037 3037 3037 3037 3037 3037 3037 3037 3036 3036 3036 3036 3036 3036 3036 3035 3035 3035 3035 3035 3035 3036 3036 3036 3036 3036 3036 3037
3076 3076 3075 3075 3074 3073 3072 3072 3071 3070 3070 3069 3068 3068 3067 3066 3065 3065 3064 3063 3062 3061 3060 3060 3059 3058 3057 3056 3055 3055 3054 3053 3052 3051 3050 3050 3049 3048 3047 3046 3046 3045 3044 3044 3043 3042 3042 3041 3040 3040 3039 3038 3038 3037 3036 3036 3035 3035 3035 3035 3034 3034 3034 3034 3034 3034 3033 3033 3033 3033 3033 3033 3033 3033 3033 3033 3033 3033 3033 3033 3033 3033 3033 3034 3034 3034
3075 3074 3074 3073 3072 3072 3071 3070 3070 3069 3068 3067 3067 3066 3065 3065 3064 3063 3062 3061 3060 3060 3059 3058 3057 3056 3055 3055 3054 3053 3052 3051 3050 3050 3049 3048 3047 3046 3045 3045 3044 3043 3042 3041 3041 3040 3039 3039 3038 3037 3036 3035 3035 3035 3034 3033 3033 3033 3032 3032 3032 3031 3031 3031 3030 3030 3030 3030 3030 3030 3030 3030 3030 3030 3030 3030 3030 3030 3031 3031 3031 3031 3031 3031 3031 3032
3074 3073 3072 3071 3071 3070 3070 3069 3068 3068 3067 3066 3065 3065 3064 3063 3062 3061 3060 3060 3059 3058 3057 3056 3055 3055 3054 3053 3052 3052 3051 3050 3049 3048 3047 3046 3045 3044 3044 3043 3042 3041 3040 3040 3039 3038 3037 3036 3035 3035 3034 3033 3032 3032 3031 3031 3030 3030 3030 3030 3029 3029 3028 3028 3028 3028 3028 3028 3028 3028 3028 3028 3028 3028 3028 3028 3028 3028 3029 3029 3029 3029 3029 3029 3030 3030
3072 3071 3071 3070 3069 3069 3068 3067 3067 3066 3065 3065 3064 3063 3062 3061 3061 3060 3059 3058 3057 3056 3056 3055 3054 3053 3052 3051 3051 3050 3049 3048 3047 3046 3045 3044 3043 3042 3042 3041 3040 3039 3038 3038 3037 3036 3035 3034 3033 3032 3031 3030 3030 3030 3029 3029 3028 3028 3027 3027 3027 3026 3026 3026 3025 3025 3025 3025 3025 3025 3025 3025 3026 3026 3026 3026 3026 3026 3027 3027 3027 3027 3028 3028 3028 3028
3070 3070 3069 3069 3068 3067 3066 3066 3065 3065 3064 3063 3062 3062 3061 3060 3059 3058 3057 3056 3056 3055 3054 3053 3052 3051 3050 3050 3049 3048 3047 3046 3045 3044 3043 3042 3041 3040 3040 3039 3038 3037 3036 3035 3035 3034 3033 3032 3031 3030 3029 3029 3028 3027 3027 3026 3026 3025 3025 3025 3025 3024 3024 3024 3024 3024 3024 3024 3024 3024 3024 3024 3024 3024 3025 3025 3025 3025 3025 3025 3026 3026 3026 3026 3027 3027
3069 3068 3068 3067 3066 3066 3065 3064 3064 3063 3062 3061 3061 3060 3059 3059 3058 3057 3056 3055 3054 3053 3052 3051 3050 3050 3049 3048 3047 3046 3045 3045 3044 3042 3041 3040 3039 3038 3038 3037 3036 3035 3034 3033 3033 3032 3031 3030 3029 3028 3027 3026 3026 3025 3025 3025 3024 3024 3023 3023 3023 3023 3022 3022 3022 3022 3022 3022 3023 3023 3023 3023 3023 3023 3023 3024 3024 3024 3024 3025 3025 3025 3025 3025 3025 3026
3068 3067 3066 3065 3065 3064 3064 3063 3062 3061 3061 3060 3059 3059 3058 3057 3056 3055 3054 3053 3052 3051 3050 3050 3049 3048 3047 3046 3045 3044 3043 3043 3042 3040 3039 3038 3036 3036 3035 3035 3034 3033 3032 3031 3030 3029 3029 3028 3027 3026 3025 3025 3024 3024 3023 3023 3022 3022 3022 3022 3021 3021 3021 3021 3021 3021 3021 3021 3022 3022 3022 3022 3022 3022 3022 3023 3023 3023 3023 3023 3024 3024 3024 3024 3024 3025
3066 3065 3065 3064 3064 3063 3062 3061 3061 3060 3059 3059 3058 3057 3056 3055 3054 3053 3052 3051 3051 3050 3049 3048 3047 3046 3045 3044 3043 3042 3041 3040 3040 3039 3037 3036 3034 3033 3033 3033 3032 3031 3030 3029 3028 3027 3026 3025 3025 3024 3024 3023 3023 3022 3022 3021 3021 3021 3021 3020 3020 3020 3020 3020 3020 3020 3020 3021 3021 3021 3021 3021 3021 3021 3021 3021 3021 3022 3022 3022 3022 3022 3022 3023 3023 3023
3065 3064 3063 3063 3062 3061 3060 3060 3059 3058 3058 3057 3056 3055 3054 3053 3053 3052 3051 3050 3049 3048 3047 3046 3045 3044 3043 3042 3040 3040 3039 3038 3037 3037 3035 3034 3032 3031 3031 3030 3030 3029 3028 3027 3026 3025 3024 3024 3023 3023 3022 3022 3021 3021 3020 3020 3020 3020 3020 3020 3020 3020 3020 3020 3020 3020 3020 3020 3020 3020 3020 3020 3020 3020 3020 3020 3020 3020 3020 3020 3020 3021 3021 3021 3021 3021
3063 3062 3062 3061 3060 3060 3059 3058 3057 3057 3056 3055 3055 3054 3053 3052 3051 3050 3049 3048 3047 3046 3045 3045 3044 3043 3042 3040 3039 3038 3037 3036 3035 3035 3033 3032 3030 3029 3029 3028 3027 3027 3026 3025 3024 3023 3022 3022 3021 3021 3020 3020 3020 3020 3019 3019 3019 3019 3019 3019 3019 3019 3019 3019 3019 3019 3018 3018 3018 3018 3018 3018 3018 3018 3018 3018 3019 3019 3019 3019 3019 3019 3019 3019 3019 3020
3061 3061 3060 3060 3059 3058 3057 3056 3056 3055 3054 3053 3053 3052 3051 3050 3049 3048 3047 3046 3045 3044 3044 3043 3042 3041 3040 3039 3037 3036 3035 3034 3033 3032 3031 3030 3028 3027 3026 3026 3025 3025 3024 3023 3022 3021 3020 3020 3020 3020 3019 3019 3019 3018 3018 3018 3018 3018 3018 3017 3017 3017 3017 3017 3017 3017 3017 3017 3017 3017 3017 3017 3017 3017 3017 3017 3017 3017 3017 3017 3017 3017 3017 3017 3017 3018
3060 3059 3058 3058 3057 3056 3055 3055 3054 3053 3052 3052 3051 3050 3049 3048 3047 3046 3045 3044 3043 3042 3041 3040 3040 3039 3037 3036 3035 3034 3033 3032 3031 3030 3029 3028 3026 3025 3025 3024 3023 3023 3022 3021 3020 3020 3019 3019 3019 3018 3018 3018 3017 3017 3017 3017 3016 3016 3016 3016 3016 3016 3016 3016 3016 3016 3015 3015 3015 3015 3015 3015 3015 3015 3015 3015 3015 3015 3015 3015 3015 3015 3015 3016 3016 3016
3058 3058 3057 3056 3055 3055 3054 3053 3052 3051 3051 3050 3049 3048 3047 3046 3045 3044 3043 3042 3041 3040 3039 3038 3037 3036 3035 3034 3033 3032 3031 3030 3029 3028 3027 3026 3025 3023 3022 3022 3021 3021 3020 3019 3018 3018 3017 3017 3017 3017 3017 3016 3016 3016 3015 3015 3015 3015 3015 3015 3015 3015 3015 3015 3014 3014 3014 3014 3014 3014 3014 3014 3014 3014 3014 3014 3014 3014 3014 3014 3014 3014 3014 3014 3014 3014
3057 3056 3055 3055 3054 3053 3052 3051 3050 3050 3049 3048 3047 3046 3045 3044 3043 3042 3041 3040 3039 3038 3037 3036 3035 3034 3033 3032 3031 3030 3029 3028 3027 3026 3025 3024 3023 3021 3020 3020 3019 3019 3018 3017 3016 3016 3016 3016 3016 3015 3015 3015 3015 3015 3014 3014 3014 3014 3014 3014 3013 3013 3013 3013 3013 3013 3013 3012 3012 3012 3012 3012 3012 3012 3012 3012 3012 3012 3012 3012 3012 3012 3012 3012 3012 3012
3055 3055 3054 3053 3052 3051 3050 3050 3049 3048 3047 3046 3045 3045 3044 3042 3041 3040 3039 3038 3037 3036 3035 3035 3033 3032 3031 3030 3029 3028 3027 3026 3025 3024 3023 3022 3020 3019 3018 3018 3017 3016 3016 3015 3015 3015 3015 3015 3015 3014 3014 3014 3013 3013 3013 3013 3013 3012 3012 3012 3012 3012 3012 3011 3011 3011 3011 3011 3011 3010 3010 3010 3010 3010 3010 3010 3010 3010 3010 3010 3010 3010 3010 3010 3010 3010
3054 3053 3052 3051 3050 3050 3049 3048 3047 3046 3045 3045 3044 3043 3042 3040 3040 3038 3037 3036 3035 3035 3034 3033 3031 3030 3029 3027 3026 3025 3024 3023 3022 3021 3021 3020 3019 3017 3016 3016 3015 3015 3014 3014 3013 3013 3013 3013 3013 3013 3012 3012 3011 3011 3011 3011 3011 3011 3011 3010 3010 3010 3010 3010 3010 3010 3009 3009 3009 3009 3009 3009 3009 3009 3008 3008 3008 3008 3008 3008 3008 3008 3009 3009 3009 3009
3052 3051 3050 3050 3049 3048 3047 3046 3045 3045 3044 3043 3042 3041 3040 3039 3038 3036 3035 3034 3033 3032 3031 3030 3029 3028 3026 3025 3024 3023 3021 3021 3020 3019 3018 3018 3017 3015 3014 3014 3013 3013 3012 3011 3011 3011 3012 3012 3011 3011 3011 3010 3010 3010 3009 3009 3009 3009 3009 3009 3009 3008 3008 3008 3008 3008 3008 3007 3007 3007 3007 3007 3007 3007 3007 3007 3007 3007 3007 3007 3007 3007 3007 3007 3007 3007
3050 3050 3049 3048 3047 3046 3045 3045 3044 3043 3042 3041 3040 3040 3039 3037 3036 3035 3034 3032 3031 3030 3029 3028 3027 3026 3025 3023 3022 3020 3019 3018 3018 3017 3016 3015 3015 3014 3012 3012 3011 3010 3010 3010 3010 3010 3010 3010 3010 3010 3009 3008 3008 3008 3007 3007 3007 3007 3007 3007 3007 3006 3006 3006 3006 3006 3006 3005 3005 3005 3005 3005 3005 3005 3005 3005 3005 3005 3005 3005 3005 3005 3005 3005 3005 3005
3049 3048 3047 3046 3045 3045 3044 3043 3042 3041 3040 3040 3039 3038 3037 3036 3035 3033 3032 3031 3030 3029 3028 3026 3025 3024 3023 3021 3020 3019 3017 3016 3015 3015 3014 3014 3013 3012 3011 3010 3009 3009 3008 3008 3008 3008 3008 3008 3008 3008 3007 3007 3006 3006 3005 3005 3005 3005 3005 3005 3005 3005 3004 3004 3004 3004 3004 3004 3004 3004 3004 3004 3004 3004 3004 3003 3003 3003 3003 3003 3003 3003 3003 3003 3003 3003
3048 3047 3046 3045 3044 3043 3042 3041 3040 3039 3038 3037 3036 3035 3035 3034 3033 3031 3030 3029 3028 3027 3026 3025 3024 3022 3021 3020 3018 3017 3015 3014 3013 3012 3012 3012 3011 3010 3009 3008 3007 3007 3006 3006 3006 3006 3006 3006 3006 3006 3005 3005 3005 3004 3004 3004 3003 3003 3003 3003 3003 3002 3002 3002 3002 3002 3002 3002 3002 3002 3002 3002 3002 3002 3002 3002 3002 3002 3001 3001 3001 3001 3001 3001 3001 3001
3046 3045 3044 3043 3042 3041 3040 3039 3038 3037 3036 3035 3034 3033 3032 3031 3030 3030 3028 3027 3026 3025 3024 3023 3022 3020 3019 3018 3016 3015 3013 3012 3011 3010 3010 3010 3009 3008 3007 3006 3006 3005 3005 3004 3004 3004 3004 3004 3004 3004 3003 3003 3002 3002 3002 3001 3001 3001 3001 3001 3000 3000 3000 3000 3000 3000 3000 3000 3000 3000 3000 3000 3000 3000 3000 3000 3000 3000 3000 3000 3000 2999 2999 2999 2999 2999
3044 3043 3042 3041 3040 3040 3039 3037 3036 3035 3034 3033 3032 3031 3030 3029 3028 3027 3026 3025 3024 3023 3022 3021 3020 3018 3017 3016 3015 3013 3011 3010 3009 3008 3008 3008 3007 3006 3005 3005 3004 3004 3003 3003 3002 3002 3002 3002 3002 3001 3001 3000 3000 3000 3000 3000 2999 2999 2999 2999 2998 2998 2998 2998 2998 2998 2998 2998 2998 2998 2998 2998 2998 2998 2998 2998 2998 2998 2997 2997 2997 2997 2997 2997 2997 2997
3043 3042 3041 3040 3039 3038 3037 3036 3035 3034 3032 3031 3030 3029 3028 3027 3026 3025 3024 3023 3022 3021 3020 3019 3017 3016 3015 3014 3013 3011 3010 3008 3007 3006 3006 3005 3005 3004 3004 3003 3002 3001 3001 3001 3000 3000 3000 3000 2999 2999 2999 2998 2998 2997 2997 2997 2997 2997 2996 2996 2996 2996 2996 2996 2995 2995 2995 2995 2995 2995 2995 2995 2995 2995 2995 2995 2995 2995 2995 2995 2995 2994 2994 2994 2994 2994
3041 3040 3039 3038 3037 3036 3035 3034 3033 3032 3031 3030 3028 3027 3026 3025 3024 3023 3022 3021 3020 3019 3017 3016 3015 3014 3012 3011 3010 3009 3008 3006 3005 3004 3004 3003 3003 3002 3002 3001 3000 3000 2999 2999 2999 2999 2998 2998 2997 2997 2996 2996 2995 2995 2995 2995 2994 2994 2994 2994 2994 2993 2993 2993 2993 2993 2993 2993 2992 2992 2992 2992 2992 2992 2992 2992 2992 2992 2992 2992 2991 2991 2991 2991 2991 2991
3039 3038 3037 3036 3035 3034 3033 3032 3031 3030 3029 3028 3026 3025 3024 3023 3022 3021 3020 3019 3017 3016 3015 3014 3013 3011 3010 3009 3008 3007 3005 3004 3003 3002 3002 3001 3001 3000 3000 2999 2998 2998 2997 2997 2996 2996 2996 2996 2995 2995 2994 2994 2993 2992 2992 2992 2992 2992 2991 2991 2991 2991 2990 2990 2990 2990 2990 2990 2990 2989 2989 2989 2989 2989 2989 2989 2989 2989 2989 2988 2988 2988 2988 2988 2988 2988
3037 3036 3035 3035 3034 3032 3031 3030 3029 3028 3027 3026 3025 3024 3022 3021 3020 3019 3018 3016 3015 3014 3013 3012 3010 3010 3008 3007 3006 3005 3003 3002 3001 3000 2999 2999 2999 2998 2997 2997 2996 2995 2995 2995 2994 2994 2994 2994 2994 2993 2992 2992 2991 2990 2990 2989 2989 2989 2989 2989 2988 2988 2988 2988 2987 2987 2987 2987 2986 2986 2986 2986 2986 2986 2986 2985 2985 2985 2985 2985 2985 2985 2985 2985 2985 2985
3035 3035 3034 3033 3032 3030 3030 3029 3027 3026 3025 3024 3023 3022 3020 3019 3018 3017 3016 3015 3013 3012 3011 3010 3008 3007 3006 3005 3004 3002 3001 3000 2999 2998 2997 2997 2996 2996 2995 2995 2994 2993 2993 2992 2992 2992 2992 2992 2992 2991 2991 2990 2989 2988 2987 2986 2986 2986 2986 2986 2986 2985 2985 2985 2985 2985 2984 2984 2984 2983 2983 2983 2983 2982 2982 2982 2982 2982 2982 2982 2981 2981 2981 2981 2981 2981
3033 3032 3031 3030 3030 3029 3028 3026 3025 3024 3023 3022 3021 3020 3018 3017 3016 3015 3014 3012 3011 3010 3009 3007 3006 3005 3004 3003 3001 3000 2999 2998 2996 2995 2995 2994 2994 2993 2993 2992 2992 2991 2990 2990 2990 2990 2990 2989 2989 2989 2989 2989 2988 2987 2985 2984 2984 2983 2983 2983 2983 2983 2982 2982 2982 2982 2981 2981 2981 2980 2980 2980 2980 2979 2979 2979 2979 2979 2979 2979 2978 2978 2978 2978 2978 2978
3031 3030 3030 3028 3027 3026 3025 3025 3023 3022 3021 3020 3019 3018 3016 3015 3014 3013 3012 3010 3009 3008 3007 3005 3004 3003 3001 3000 2999 2998 2997 2995 2994 2993 2992 2991 2991 2990 2990 2990 2989 2989 2988 2987 2987 2987 2987 2987 2987 2986 2986 2986 2986 2985 2984 2983 2982 2981 2981 2980 2980 2980 2979 2979 2979 2979 2979 2978 2978 2977 2977 2977 2977 2976 2976 2976 2976 2976 2976 2975 2975 2975 2975 2975 2975 2974
3029 3028 3027 3026 3025 3025 3023 3022 3021 3020 3019 3018 3017 3015 3015 3013 3012 3011 3010 3009 3007 3006 3005 3004 3002 3001 3000 2998 2997 2996 2995 2993 2992 2991 2990 2990 2989 2988 2988 2987 2986 2986 2985 2985 2985 2984 2984 2984 2984 2984 2984 2984 2983 2983 2982 2981 2981 2980 2979 2978 2978 2977 2977 2976 2976 2976 2975 2975 2975 2975 2974 2974 2974 2974 2974 2974 2974 2973 2973 2973 2972 2972 2972 2971 2971 2971
3027 3026 3025 3025 3023 3022 3021 3020 3019 3018 3017 3016 3015 3014 3012 3011 3010 3009 3008 3006 3005 3004 3003 3001 3000 2999 2997 2996 2995 2994 2992 2991 2990 2989 2988 2987 2986 2986 2985 2985 2984 2983 2983 2982 2982 2982 2981 2981 2981 2981 2981 2981 2981 2980 2980 2980 2979 2978 2977 2977 2976 2975 2975 2974 2973 2973 2973 2972 2972 2972 2971 2971 2971 2971 2971 2971 2971 2971 2970 2970 2970 2969 2969 2969 2968 2968
3025 3025 3023 3022 3021 3020 3020 3018 3017 3016 3015 3014 3013 3011 3010 3009 3008 3007 3005 3004 3003 3002 3001 3000 2998 2997 2995 2994 2993 2991 2990 2989 2988 2987 2986 2985 2984 2984 2983 2982 2982 2981 2980 2980 2979 2979 2979 2978 2978 2978 2978 2978 2978 2978 2978 2977 2977 2976 2975 2975 2974 2973 2973 2972 2971 2970 2970 2970 2969 2969 2968 2968 2968 2968 2968 2968 2968 2968 2968 2968 2967 2967 2966 2966 2966 2965
3023 3022 3021 3020 3020 3019 3017 3016 3015 3014 3013 3012 3010 3009 3008 3007 3006 3005 3004 3002 3001 3000 2999 2997 2996 2995 2993 2992 2990 2989 2988 2987 2986 2985 2984 2983 2982 2981 2980 2980 2979 2979 2978 2977 2977 2976 2976 2975 2975 2975 2975 2975 2975 2975 2975 2975 2974 2973 2973 2972 2972 2971 2971 2970 2969 2968 2967 2967 2966 2966 2965 2965 2965 2965 2965 2965 2965 2965 2965 2965 2965 2964 2964 2963 2963 2963
3021 3020 3019 3018 3017 3016 3015 3014 3013 3012 3010 3010 3009 3007 3006 3005 3004 3003 3002 3000 2999 2998 2997 2995 2994 2993 2991 2990 2988 2987 2986 2985 2984 2983 2982 2981 2980 2979 2978 2977 2977 2976 2975 2975 2974 2974 2973 2973 2972 2972 2972 2972 2972 2972 2972 2972 2971 2970 2970 2969 2969 2969 2969 2968 2967 2966 2965 2965 2964 2963 2963 2963 2963 2963 2963 2963 2962 2962 2962 2962 2961 2961 2961 2960 2960 2960
3019 3018 3017 3016 3015 3014 3013 3012 3011 3010 3009 3008 3006 3005 3004 3003 3002 3001 3000 2998 2997 2996 2995 2994 2992 2991 2989 2988 2986 2984 2983 2982 2981 2980 2979 2978 2977 2976 2976 2975 2974 2973 2973 2972 2972 2971 2970 2970 2970 2969 2969 2969 2969 2969 2969 2969 2968 2967 2966 2966 2966 2966 2966 2965 2965 2964 2963 2962 2961 2960 2960 2960 2960 2960 2960 2960 2960 2959 2959 2959 2958 2958 2958 2957 2957 2956
3017 3016 3015 3014 3013 3012 3011 3010 3009 3008 3007 3005 3005 3003 3002 3001 3000 2999 2998 2996 2995 2994 2992 2991 2990 2989 2987 2985 2984 2982 2980 2979 2978 2977 2976 2975 2974 2974 2973 2972 2971 2971 2970 2970 2969 2969 2968 2968 2967 2966 2966 2966 2966 2966 2966 2965 2965 2964 2964 2963 2963 2963 2963 2963 2962 2961 2960 2959 2958 2958 2957 2957 2957 2957 2957 2957 2957 2956 2956 2956 2955 2955 2955 2954 2954 2953
3015 3014 3013 3012 3011 3010 3009 3008 3007 3005 3005 3003 3002 3001 3000 2999 2998 2997 2995 2994 2993 2991 2990 2989 2988 2986 2985 2983 2982 2980 2979 2977 2975 2974 2973 2972 2971 2971 2970 2969 2969 2968 2968 2967 2967 2966 2966 2965 2965 2964 2964 2963 2963 2963 2962 2962 2962 2961 2961 2960 2960 2960 2960 2959 2959 2958 2957 2956 2956 2955 2954 2954 2954 2954 2954 2954 2954 2954 2953 2953 2952 2952 2951 2951 2950 2950
3013 3012 3011 3010 3009 3008 3007 3005 3005 3003 3002 3001 3000 2999 2998 2997 2995 2994 2993 2992 2990 2989 2988 2987 2985 2984 2983 2981 2980 2978 2977 2975 2974 2972 2971 2970 2969 2968 2967 2967 2966 2965 2965 2965 2964 2964 2964 2963 2962 2961 2961 2960 2960 2960 2960 2959 2958 2958 2958 2957 2957 2957 2957 2956 2955 2955 2954 2954 2953 2952 2951 2951 2950 2950 2951 2951 2951 2951 2950 2950 2950 2949 2948 2948 2947 2947
3011 3010 3009 3008 3007 3006 3005 3003 3002 3001 3000 2999 2998 2997 2995 2994 2993 2992 2991 2990 2988 2987 2986 2985 2983 2982 2981 2979 2978 2976 2975 2974 2972 2970 2969 2967 2966 2965 2964 2964 2963 2963 2963 2962 2962 2961 2961 2960 2960 2959 2959 2958 2958 2957 2957 2956 2955 2955 2955 2955 2954 2954 2954 2953 2952 2952 2951 2950 2950 2949 2948 2948 2948 2947 2947 2947 2947 2947 2947 2947 2946 2946 2945 2945 2944 2944
3009 3008 3007 3005 3005 3003 3002 3001 3000 2999 2998 2997 2995 2994 2993 2992 2991 2990 2988 2987 2986 2985 2983 2982 2981 2980 2978 2977 2975 2974 2973 2972 2970 2969 2967 2966 2965 2963 2962 2961 2960 2960 2960 2959 2959 2959 2958 2958 2957 2957 2956 2955 2955 2954 2954 2953 2953 2952 2952 2952 2951 2951 2951 2950 2950 2949 2948 2947 2947 2946 2945 2945 2945 2944 2944 2944 2944 2944 2944 2944 2943 2943 2942 2941 2941 2941
3006 3005 3005 3003 3002 3001 3000 2999 2998 2997 2995 2995 2993 2992 2991 2990 2989 2987 2986 2985 2984 2982 2981 2980 2979 2977 2976 2975 2973 2972 2970 2969 2968 2966 2965 2964 2963 2961 2960 2959 2958 2957 2957 2956 2956 2956 2955 2955 2955 2954 2953 2953 2952 2951 2951 2951 2950 2950 2949 2949 2949 2948 2947 2947 2946 2946 2945 2944 2944 2943 2943 2942 2941 2941 2940 2940 2940 2941 2941 2940 2940 2940 2939 2939 2938 2938
3004 3003 3002 3001 3000 2999 2998 2997 2996 2995 2994 2992 2991 2990 2989 2987 2986 2985 2984 2983 2981 2980 2979 2978 2976 2975 2974 2972 2971 2970 2968 2967 2965 2964 2963 2961 2960 2959 2958 2957 2956 2955 2955 2954 2954 2953 2953 2953 2952 2951 2950 2950 2949 2949 2949 2948 2948 2948 2947 2946 2946 2945 2945 2944 2944 2943 2942 2942 2941 2940 2940 2939 2938 2938 2937 2937 2937 2937 2937 2937 2937 2937 2936 2936 2935 2935
3002 3001 3000 2999 2998 2997 2996 2995 2994 2993 2991 2990 2989 2988 2986 2985 2984 2983 2981 2980 2979 2978 2976 2975 2974 2973 2972 2970 2969 2967 2966 2965 2963 2962 2960 2959 2958 2957 2956 2955 2954 2953 2952 2952 2951 2951 2951 2950 2950 2950 2949 2947 2946 2946 2946 2946 2945 2945 2945 2944 2943 2942 2942 2941 2941 2940 2940 2939 2939 2938 2937 2937 2936 2935 2935 2934 2934 2934 2934 2935 2935 2934 2934 2933 2933 2933